,,PressureMeas_1m,,PRMeasQMR101_1,,RHStat155_1m_1,,SRMeasQMS101R_1m,,TAStat155_1m_1,,GenWind_1,,GenWind_1,
2019-04-15, 00:00:06,VALID,919.651,VALID,0.0,VALID,99.514,VALID,-0.037,VALID,20.559,VALID,111.0,VALID,0.0,
2019-04-15, 00:01:06,VALID,919.625,VALID,0.0,VALID,99.507,VALID,-0.042,VALID,20.555,VALID,105.0,VALID,0.0,
2019-04-15, 00:02:06,VALID,919.602,VALID,0.2,VALID,99.521,VALID,-0.035,VALID,20.553,VALID,104.0,VALID,0.0,
2019-04-15, 00:03:06,VALID,919.589,VALID,0.0,VALID,99.536,VALID,-0.039,VALID,20.55,VALID,106.0,VALID,0.0,
2019-04-15, 00:04:06,VALID,919.574,VALID,0.0,VALID,99.53,VALID,-0.035,VALID,20.552,VALID,109.0,VALID,0.0,
2019-04-15, 00:05:06,VALID,919.545,VALID,0.0,VALID,99.512,VALID,-0.029,VALID,20.527,VALID,111.0,VALID,0.0,
2019-04-15, 00:06:06,VALID,919.497,VALID,0.2,VALID,99.537,VALID,-0.039,VALID,20.515,VALID,111.0,VALID,0.0,
2019-04-15, 00:07:06,VALID,919.474,VALID,0.0,VALID,99.524,VALID,-0.03,VALID,20.492,VALID,113.0,VALID,0.0,
2019-04-15, 00:08:06,VALID,919.437,VALID,0.0,VALID,99.531,VALID,-0.044,VALID,20.489,VALID,115.0,VALID,0.0,
2019-04-15, 00:09:06,VALID,919.4,VALID,0.0,VALID,99.53,VALID,-0.041,VALID,20.493,VALID,111.0,VALID,0.0,
2019-04-15, 00:10:06,VALID,919.359,VALID,0.2,VALID,99.518,VALID,-0.036,VALID,20.489,VALID,123.0,VALID,0.0,
2019-04-15, 00:11:06,VALID,919.326,VALID,0.0,VALID,99.505,VALID,-0.034,VALID,20.477,VALID,119.0,VALID,0.0,
2019-04-15, 00:12:06,VALID,919.327,VALID,0.2,VALID,99.529,VALID,-0.051,VALID,20.484,VALID,125.0,VALID,0.0,
2019-04-15, 00:13:06,VALID,919.28,VALID,0.0,VALID,99.539,VALID,-0.043,VALID,20.511,VALID,135.0,VALID,0.0,
2019-04-15, 00:14:06,VALID,919.255,VALID,0.2,VALID,99.536,VALID,-0.036,VALID,20.57,VALID,122.0,VALID,0.0,
2019-04-15, 00:15:06,VALID,919.246,VALID,0.0,VALID,99.546,VALID,-0.034,VALID,20.566,VALID,137.0,VALID,0.0,
2019-04-15, 00:16:06,VALID,919.236,VALID,0.2,VALID,99.534,VALID,-0.054,VALID,20.539,VALID,155.0,VALID,0.0,
2019-04-15, 00:17:06,VALID,919.22,VALID,0.0,VALID,99.53,VALID,-0.042,VALID,20.536,VALID,155.0,VALID,0.0,
2019-04-15, 00:18:06,VALID,919.213,VALID,0.0,VALID,99.532,VALID,-0.031,VALID,20.516,VALID,155.0,VALID,0.0,
2019-04-15, 00:19:06,VALID,919.196,VALID,0.2,VALID,99.531,VALID,-0.033,VALID,20.494,VALID,166.0,VALID,0.516,
2019-04-15, 00:20:06,VALID,919.181,VALID,0.0,VALID,99.529,VALID,-0.027,VALID,20.494,VALID,119.0,VALID,0.055,
2019-04-15, 00:21:06,VALID,919.163,VALID,0.2,VALID,99.551,VALID,-0.032,VALID,20.517,VALID,145.0,VALID,0.0,
2019-04-15, 00:22:06,VALID,919.136,VALID,0.0,VALID,99.554,VALID,-0.032,VALID,20.559,VALID,116.0,VALID,0.0,
2019-04-15, 00:23:06,VALID,919.102,VALID,0.2,VALID,99.541,VALID,-0.039,VALID,20.56,VALID,123.0,VALID,0.0,
2019-04-15, 00:24:06,VALID,919.085,VALID,0.0,VALID,99.534,VALID,-0.022,VALID,20.549,VALID,114.0,VALID,0.0,
2019-04-15, 00:25:06,VALID,919.063,VALID,0.2,VALID,99.542,VALID,-0.02,VALID,20.565,VALID,109.0,VALID,0.0,
2019-04-15, 00:26:06,VALID,919.046,VALID,0.0,VALID,99.528,VALID,-0.026,VALID,20.554,VALID,113.0,VALID,0.0,
2019-04-15, 00:27:06,VALID,919.023,VALID,0.2,VALID,99.535,VALID,-0.037,VALID,20.534,VALID,126.0,VALID,0.0,
2019-04-15, 00:28:06,VALID,919.006,VALID,0.0,VALID,99.531,VALID,-0.047,VALID,20.481,VALID,121.0,VALID,0.0,
2019-04-15, 00:29:06,VALID,918.994,VALID,0.2,VALID,99.517,VALID,-0.028,VALID,20.453,VALID,116.0,VALID,0.0,
2019-04-15, 00:30:06,VALID,918.951,VALID,0.0,VALID,99.522,VALID,-0.031,VALID,20.451,VALID,129.0,VALID,0.0,
2019-04-15, 00:31:06,VALID,918.94,VALID,0.2,VALID,99.53,VALID,-0.047,VALID,20.435,VALID,129.0,VALID,0.0,
2019-04-15, 00:32:06,VALID,918.914,VALID,0.0,VALID,99.54,VALID,-0.02,VALID,20.484,VALID,128.0,VALID,0.0,
2019-04-15, 00:33:06,VALID,918.88,VALID,0.0,VALID,99.546,VALID,-0.019,VALID,20.527,VALID,128.0,VALID,0.0,
2019-04-15, 00:34:06,VALID,918.877,VALID,0.2,VALID,99.592,VALID,-0.014,VALID,20.614,VALID,128.0,VALID,0.0,
2019-04-15, 00:35:06,VALID,918.863,VALID,0.0,VALID,99.568,VALID,-0.013,VALID,20.644,VALID,113.0,VALID,0.0,
2019-04-15, 00:36:06,VALID,918.831,VALID,0.2,VALID,99.551,VALID,-0.025,VALID,20.639,VALID,109.0,VALID,0.0,
2019-04-15, 00:37:06,VALID,918.811,VALID,0.0,VALID,99.546,VALID,-0.007,VALID,20.645,VALID,110.0,VALID,0.0,
2019-04-15, 00:38:06,VALID,918.818,VALID,0.0,VALID,99.504,VALID,0.006,VALID,20.548,VALID,148.0,VALID,0.0,
2019-04-15, 00:39:06,VALID,918.809,VALID,0.2,VALID,99.508,VALID,-0.006,VALID,20.492,VALID,154.0,VALID,0.0,
2019-04-15, 00:40:06,VALID,918.796,VALID,0.0,VALID,99.5,VALID,-0.018,VALID,20.465,VALID,140.0,VALID,0.0,
2019-04-15, 00:41:06,VALID,918.83,VALID,0.0,VALID,99.525,VALID,-0.008,VALID,20.475,VALID,125.0,VALID,0.0,
2019-04-15, 00:42:06,VALID,918.829,VALID,0.2,VALID,99.536,VALID,-0.013,VALID,20.485,VALID,145.0,VALID,0.0,
2019-04-15, 00:43:06,VALID,918.815,VALID,0.0,VALID,99.538,VALID,-0.019,VALID,20.486,VALID,118.0,VALID,0.0,
2019-04-15, 00:44:06,VALID,918.807,VALID,0.0,VALID,99.535,VALID,-0.012,VALID,20.493,VALID,143.0,VALID,0.0,
2019-04-15, 00:45:06,VALID,918.775,VALID,0.0,VALID,99.537,VALID,-0.013,VALID,20.491,VALID,125.0,VALID,0.0,
2019-04-15, 00:46:06,VALID,918.77,VALID,0.2,VALID,99.526,VALID,-0.017,VALID,20.468,VALID,117.0,VALID,0.0,
2019-04-15, 00:47:06,VALID,918.729,VALID,0.0,VALID,99.539,VALID,0.001,VALID,20.47,VALID,127.0,VALID,0.0,
2019-04-15, 00:48:06,VALID,918.677,VALID,0.0,VALID,99.519,VALID,0.015,VALID,20.445,VALID,121.0,VALID,0.0,
2019-04-15, 00:49:06,VALID,918.649,VALID,0.2,VALID,99.547,VALID,-0.005,VALID,20.441,VALID,129.0,VALID,0.0,
2019-04-15, 00:50:06,VALID,918.619,VALID,0.0,VALID,99.534,VALID,-0.006,VALID,20.474,VALID,113.0,VALID,0.0,
2019-04-15, 00:51:06,VALID,918.587,VALID,0.0,VALID,99.522,VALID,-0.014,VALID,20.445,VALID,117.0,VALID,0.0,
2019-04-15, 00:52:06,VALID,918.541,VALID,0.2,VALID,99.531,VALID,-0.01,VALID,20.441,VALID,120.0,VALID,0.0,
2019-04-15, 00:53:06,VALID,918.541,VALID,0.0,VALID,99.546,VALID,-0.007,VALID,20.449,VALID,119.0,VALID,0.0,
2019-04-15, 00:54:06,VALID,918.495,VALID,0.0,VALID,99.533,VALID,-0.018,VALID,20.434,VALID,99.0,VALID,0.0,
2019-04-15, 00:55:06,VALID,918.455,VALID,0.2,VALID,99.535,VALID,-0.001,VALID,20.444,VALID,107.0,VALID,0.0,
2019-04-15, 00:56:06,VALID,918.434,VALID,0.0,VALID,99.529,VALID,-0.015,VALID,20.431,VALID,118.0,VALID,0.0,
2019-04-15, 00:57:06,VALID,918.406,VALID,0.2,VALID,99.517,VALID,-0.027,VALID,20.418,VALID,116.0,VALID,0.0,
2019-04-15, 00:58:06,VALID,918.348,VALID,0.0,VALID,99.548,VALID,-0.031,VALID,20.407,VALID,114.0,VALID,0.0,
2019-04-15, 00:59:06,VALID,918.34,VALID,0.0,VALID,99.539,VALID,-0.008,VALID,20.41,VALID,110.0,VALID,0.0,
2019-04-15, 01:00:06,VALID,918.312,VALID,0.2,VALID,99.544,VALID,0.017,VALID,20.421,VALID,113.0,VALID,0.0,
2019-04-15, 01:01:06,VALID,918.286,VALID,0.0,VALID,99.561,VALID,0.019,VALID,20.471,VALID,152.0,VALID,0.0,
2019-04-15, 01:02:06,VALID,918.261,VALID,0.0,VALID,99.568,VALID,0.028,VALID,20.495,VALID,98.0,VALID,0.0,
2019-04-15, 01:03:06,VALID,918.245,VALID,0.2,VALID,99.569,VALID,0.0,VALID,20.518,VALID,116.0,VALID,0.0,
2019-04-15, 01:04:06,VALID,918.249,VALID,0.0,VALID,99.553,VALID,0.018,VALID,20.525,VALID,131.0,VALID,0.0,
2019-04-15, 01:05:06,VALID,918.221,VALID,0.0,VALID,99.569,VALID,0.011,VALID,20.536,VALID,133.0,VALID,0.0,
2019-04-15, 01:06:06,VALID,918.227,VALID,0.0,VALID,99.529,VALID,0.021,VALID,20.488,VALID,130.0,VALID,0.203,
2019-04-15, 01:07:06,VALID,918.195,VALID,0.2,VALID,99.546,VALID,0.006,VALID,20.474,VALID,131.0,VALID,0.871,
2019-04-15, 01:08:06,VALID,918.168,VALID,0.0,VALID,99.541,VALID,0.007,VALID,20.464,VALID,116.0,VALID,0.855,
2019-04-15, 01:09:06,VALID,918.185,VALID,0.2,VALID,99.513,VALID,0.018,VALID,20.432,VALID,112.0,VALID,0.997,
2019-04-15, 01:10:06,VALID,918.15,VALID,0.0,VALID,99.526,VALID,0.011,VALID,20.423,VALID,117.0,VALID,0.11,
2019-04-15, 01:11:06,VALID,918.135,VALID,0.0,VALID,99.528,VALID,0.017,VALID,20.423,VALID,109.0,VALID,0.0,
2019-04-15, 01:12:06,VALID,918.11,VALID,0.0,VALID,99.548,VALID,0.032,VALID,20.41,VALID,114.0,VALID,0.0,
2019-04-15, 01:13:06,VALID,918.101,VALID,0.0,VALID,99.535,VALID,0.026,VALID,20.41,VALID,116.0,VALID,0.0,
2019-04-15, 01:14:06,VALID,918.094,VALID,0.2,VALID,99.526,VALID,0.009,VALID,20.412,VALID,116.0,VALID,0.0,
2019-04-15, 01:15:06,VALID,918.061,VALID,0.0,VALID,99.551,VALID,-0.022,VALID,20.422,VALID,118.0,VALID,0.0,
2019-04-15, 01:16:06,VALID,918.046,VALID,0.0,VALID,99.539,VALID,-0.017,VALID,20.433,VALID,122.0,VALID,0.0,
2019-04-15, 01:17:06,VALID,918.034,VALID,0.2,VALID,99.55,VALID,-0.022,VALID,20.437,VALID,116.0,VALID,0.0,
2019-04-15, 01:18:06,VALID,918.009,VALID,0.0,VALID,99.56,VALID,0.002,VALID,20.433,VALID,114.0,VALID,0.0,
2019-04-15, 01:19:06,VALID,918.003,VALID,0.0,VALID,99.557,VALID,-0.003,VALID,20.434,VALID,122.0,VALID,0.0,
2019-04-15, 01:20:06,VALID,917.973,VALID,0.0,VALID,99.535,VALID,-0.006,VALID,20.443,VALID,118.0,VALID,0.0,
2019-04-15, 01:21:06,VALID,917.971,VALID,0.0,VALID,99.54,VALID,-0.022,VALID,20.436,VALID,110.0,VALID,0.0,
2019-04-15, 01:22:06,VALID,917.953,VALID,0.2,VALID,99.556,VALID,-0.028,VALID,20.428,VALID,112.0,VALID,0.0,
2019-04-15, 01:23:06,VALID,917.931,VALID,0.0,VALID,99.53,VALID,-0.008,VALID,20.431,VALID,104.0,VALID,0.0,
2019-04-15, 01:24:06,VALID,917.919,VALID,0.0,VALID,99.535,VALID,-0.024,VALID,20.421,VALID,102.0,VALID,0.0,
2019-04-15, 01:25:06,VALID,917.885,VALID,0.0,VALID,99.531,VALID,-0.009,VALID,20.406,VALID,108.0,VALID,0.0,
2019-04-15, 01:26:06,VALID,917.871,VALID,0.0,VALID,99.534,VALID,0.001,VALID,20.39,VALID,111.0,VALID,0.0,
2019-04-15, 01:27:06,VALID,917.864,VALID,0.2,VALID,99.528,VALID,-0.006,VALID,20.383,VALID,121.0,VALID,0.0,
2019-04-15, 01:28:06,VALID,917.841,VALID,0.0,VALID,99.545,VALID,-0.01,VALID,20.381,VALID,120.0,VALID,0.0,
2019-04-15, 01:29:06,VALID,917.818,VALID,0.0,VALID,99.54,VALID,-0.007,VALID,20.371,VALID,118.0,VALID,0.0,
2019-04-15, 01:30:06,VALID,917.814,VALID,0.0,VALID,99.528,VALID,0.002,VALID,20.379,VALID,124.0,VALID,0.0,
2019-04-15, 01:31:06,VALID,917.759,VALID,0.0,VALID,99.535,VALID,0.004,VALID,20.394,VALID,120.0,VALID,0.0,
2019-04-15, 01:32:06,VALID,917.744,VALID,0.2,VALID,99.538,VALID,-0.012,VALID,20.388,VALID,121.0,VALID,0.0,
2019-04-15, 01:33:06,VALID,917.76,VALID,0.0,VALID,99.546,VALID,0.013,VALID,20.402,VALID,124.0,VALID,0.0,
2019-04-15, 01:34:06,VALID,917.763,VALID,0.0,VALID,99.534,VALID,0.0,VALID,20.413,VALID,126.0,VALID,0.0,
2019-04-15, 01:35:06,VALID,917.77,VALID,0.0,VALID,99.546,VALID,-0.013,VALID,20.427,VALID,130.0,VALID,0.0,
2019-04-15, 01:36:06,VALID,917.779,VALID,0.0,VALID,99.563,VALID,0.011,VALID,20.443,VALID,127.0,VALID,0.0,
2019-04-15, 01:37:06,VALID,917.782,VALID,0.0,VALID,99.552,VALID,0.02,VALID,20.472,VALID,125.0,VALID,0.0,
2019-04-15, 01:38:06,VALID,917.767,VALID,0.0,VALID,99.547,VALID,0.028,VALID,20.472,VALID,122.0,VALID,0.0,
2019-04-15, 01:39:07,VALID,917.764,VALID,0.2,VALID,99.536,VALID,-0.0,VALID,20.449,VALID,120.0,VALID,0.282,
2019-04-15, 01:40:07,VALID,917.738,VALID,0.0,VALID,99.538,VALID,-0.004,VALID,20.416,VALID,114.0,VALID,1.249,
2019-04-15, 01:41:07,VALID,917.733,VALID,0.0,VALID,99.527,VALID,-0.002,VALID,20.409,VALID,112.0,VALID,1.31,
2019-04-15, 01:42:07,VALID,917.701,VALID,0.0,VALID,99.535,VALID,-0.005,VALID,20.401,VALID,105.0,VALID,0.595,
2019-04-15, 01:43:07,VALID,917.677,VALID,0.2,VALID,99.543,VALID,-0.002,VALID,20.387,VALID,107.0,VALID,0.0,
2019-04-15, 01:44:07,VALID,917.668,VALID,0.0,VALID,99.548,VALID,0.006,VALID,20.369,VALID,112.0,VALID,0.0,
2019-04-15, 01:45:07,VALID,917.632,VALID,0.0,VALID,99.534,VALID,-0.029,VALID,20.38,VALID,131.0,VALID,0.0,
2019-04-15, 01:46:07,VALID,917.62,VALID,0.0,VALID,99.532,VALID,-0.033,VALID,20.396,VALID,128.0,VALID,0.0,
2019-04-15, 01:47:07,VALID,917.57,VALID,0.0,VALID,99.563,VALID,-0.033,VALID,20.438,VALID,127.0,VALID,0.0,
2019-04-15, 01:48:07,VALID,917.549,VALID,0.2,VALID,99.539,VALID,-0.046,VALID,20.413,VALID,119.0,VALID,0.0,
2019-04-15, 01:49:07,VALID,917.508,VALID,0.0,VALID,99.545,VALID,-0.024,VALID,20.423,VALID,134.0,VALID,0.0,
2019-04-15, 01:50:07,VALID,917.479,VALID,0.0,VALID,99.568,VALID,-0.038,VALID,20.464,VALID,129.0,VALID,0.0,
2019-04-15, 01:51:07,VALID,917.464,VALID,0.0,VALID,99.535,VALID,-0.038,VALID,20.442,VALID,125.0,VALID,0.0,
2019-04-15, 01:52:07,VALID,917.427,VALID,0.0,VALID,99.54,VALID,-0.024,VALID,20.427,VALID,118.0,VALID,0.0,
2019-04-15, 01:53:07,VALID,917.412,VALID,0.0,VALID,99.532,VALID,-0.037,VALID,20.403,VALID,125.0,VALID,0.0,
2019-04-15, 01:54:07,VALID,917.394,VALID,0.2,VALID,99.541,VALID,-0.034,VALID,20.41,VALID,122.0,VALID,0.0,
2019-04-15, 01:55:07,VALID,917.366,VALID,0.0,VALID,99.536,VALID,-0.051,VALID,20.391,VALID,115.0,VALID,0.0,
2019-04-15, 01:56:07,VALID,917.337,VALID,0.0,VALID,99.535,VALID,-0.032,VALID,20.375,VALID,111.0,VALID,0.0,
2019-04-15, 01:57:07,VALID,917.292,VALID,0.0,VALID,99.546,VALID,-0.013,VALID,20.366,VALID,101.0,VALID,0.0,
2019-04-15, 01:58:07,VALID,917.242,VALID,0.0,VALID,99.544,VALID,-0.047,VALID,20.361,VALID,94.0,VALID,0.0,
2019-04-15, 01:59:07,VALID,917.205,VALID,0.0,VALID,99.541,VALID,-0.04,VALID,20.366,VALID,76.0,VALID,0.0,
2019-04-15, 02:00:07,VALID,917.182,VALID,0.0,VALID,99.539,VALID,-0.009,VALID,20.362,VALID,80.0,VALID,0.0,
2019-04-15, 02:01:07,VALID,917.151,VALID,0.0,VALID,99.546,VALID,-0.024,VALID,20.352,VALID,81.0,VALID,0.0,
2019-04-15, 02:02:07,VALID,917.13,VALID,0.0,VALID,99.542,VALID,0.0,VALID,20.343,VALID,73.0,VALID,0.0,
2019-04-15, 02:03:07,VALID,917.097,VALID,0.0,VALID,99.547,VALID,0.01,VALID,20.35,VALID,68.0,VALID,0.0,
2019-04-15, 02:04:07,VALID,917.087,VALID,0.0,VALID,99.541,VALID,0.003,VALID,20.358,VALID,65.0,VALID,0.0,
2019-04-15, 02:05:07,VALID,917.071,VALID,0.0,VALID,99.536,VALID,0.005,VALID,20.343,VALID,69.0,VALID,0.0,
2019-04-15, 02:06:07,VALID,917.059,VALID,0.0,VALID,99.536,VALID,0.026,VALID,20.331,VALID,66.0,VALID,0.0,
2019-04-15, 02:07:07,VALID,917.038,VALID,0.0,VALID,99.54,VALID,-0.003,VALID,20.311,VALID,70.0,VALID,0.0,
2019-04-15, 02:08:07,VALID,917.03,VALID,0.0,VALID,99.549,VALID,0.001,VALID,20.301,VALID,77.0,VALID,0.0,
2019-04-15, 02:09:07,VALID,917.023,VALID,0.2,VALID,99.53,VALID,-0.003,VALID,20.3,VALID,74.0,VALID,0.0,
2019-04-15, 02:10:07,VALID,917.019,VALID,0.0,VALID,99.542,VALID,-0.003,VALID,20.304,VALID,90.0,VALID,0.0,
2019-04-15, 02:11:07,VALID,917.012,VALID,0.0,VALID,99.534,VALID,-0.006,VALID,20.305,VALID,97.0,VALID,0.0,
2019-04-15, 02:12:07,VALID,917.004,VALID,0.0,VALID,99.539,VALID,0.006,VALID,20.309,VALID,100.0,VALID,0.0,
2019-04-15, 02:13:07,VALID,916.979,VALID,0.0,VALID,99.556,VALID,0.009,VALID,20.312,VALID,100.0,VALID,0.0,
2019-04-15, 02:14:07,VALID,916.957,VALID,0.0,VALID,99.552,VALID,-0.011,VALID,20.328,VALID,100.0,VALID,0.0,
2019-04-15, 02:15:07,VALID,916.932,VALID,0.0,VALID,99.549,VALID,-0.009,VALID,20.347,VALID,89.0,VALID,0.0,
2019-04-15, 02:16:07,VALID,916.902,VALID,0.0,VALID,99.563,VALID,-0.02,VALID,20.376,VALID,87.0,VALID,0.0,
2019-04-15, 02:17:07,VALID,916.884,VALID,0.0,VALID,99.552,VALID,-0.029,VALID,20.365,VALID,86.0,VALID,0.0,
2019-04-15, 02:18:07,VALID,916.881,VALID,0.0,VALID,99.563,VALID,-0.033,VALID,20.344,VALID,95.0,VALID,0.0,
2019-04-15, 02:19:07,VALID,916.842,VALID,0.0,VALID,99.535,VALID,-0.026,VALID,20.322,VALID,103.0,VALID,0.0,
2019-04-15, 02:20:07,VALID,916.839,VALID,0.0,VALID,99.544,VALID,-0.026,VALID,20.322,VALID,115.0,VALID,0.0,
2019-04-15, 02:21:07,VALID,916.853,VALID,0.0,VALID,99.563,VALID,-0.008,VALID,20.328,VALID,125.0,VALID,0.0,
2019-04-15, 02:22:07,VALID,916.841,VALID,0.0,VALID,99.563,VALID,-0.016,VALID,20.352,VALID,130.0,VALID,0.0,
2019-04-15, 02:23:07,VALID,916.829,VALID,0.0,VALID,99.567,VALID,-0.019,VALID,20.365,VALID,126.0,VALID,0.0,
2019-04-15, 02:24:07,VALID,916.811,VALID,0.0,VALID,99.557,VALID,-0.013,VALID,20.385,VALID,129.0,VALID,0.0,
2019-04-15, 02:25:07,VALID,916.818,VALID,0.0,VALID,99.552,VALID,-0.007,VALID,20.397,VALID,128.0,VALID,0.0,
2019-04-15, 02:26:07,VALID,916.818,VALID,0.0,VALID,99.557,VALID,-0.027,VALID,20.397,VALID,132.0,VALID,0.0,
2019-04-15, 02:27:07,VALID,916.801,VALID,0.0,VALID,99.546,VALID,-0.037,VALID,20.38,VALID,132.0,VALID,0.0,
2019-04-15, 02:28:07,VALID,916.799,VALID,0.0,VALID,99.562,VALID,-0.019,VALID,20.364,VALID,123.0,VALID,0.0,
2019-04-15, 02:29:07,VALID,916.8,VALID,0.0,VALID,99.551,VALID,-0.009,VALID,20.361,VALID,130.0,VALID,0.0,
2019-04-15, 02:30:07,VALID,916.78,VALID,0.0,VALID,99.562,VALID,-0.023,VALID,20.377,VALID,128.0,VALID,0.0,
2019-04-15, 02:31:07,VALID,916.775,VALID,0.0,VALID,99.561,VALID,-0.022,VALID,20.389,VALID,141.0,VALID,0.0,
2019-04-15, 02:32:07,VALID,916.765,VALID,0.0,VALID,99.567,VALID,-0.031,VALID,20.387,VALID,127.0,VALID,0.0,
2019-04-15, 02:33:07,VALID,916.742,VALID,0.0,VALID,99.56,VALID,-0.033,VALID,20.39,VALID,139.0,VALID,0.0,
2019-04-15, 02:34:07,VALID,916.741,VALID,0.0,VALID,99.575,VALID,-0.036,VALID,20.412,VALID,121.0,VALID,0.0,
2019-04-15, 02:35:07,VALID,916.698,VALID,0.0,VALID,99.556,VALID,-0.032,VALID,20.384,VALID,131.0,VALID,0.0,
2019-04-15, 02:36:07,VALID,916.69,VALID,0.0,VALID,99.562,VALID,-0.012,VALID,20.395,VALID,131.0,VALID,0.0,
2019-04-15, 02:37:07,VALID,916.672,VALID,0.0,VALID,99.566,VALID,-0.021,VALID,20.388,VALID,127.0,VALID,0.0,
2019-04-15, 02:38:07,VALID,916.631,VALID,0.0,VALID,99.551,VALID,-0.026,VALID,20.363,VALID,127.0,VALID,0.0,
2019-04-15, 02:39:07,VALID,916.624,VALID,0.2,VALID,99.562,VALID,-0.013,VALID,20.347,VALID,125.0,VALID,0.0,
2019-04-15, 02:40:07,VALID,916.576,VALID,0.0,VALID,99.562,VALID,-0.032,VALID,20.333,VALID,122.0,VALID,0.0,
2019-04-15, 02:41:07,VALID,916.564,VALID,0.0,VALID,99.56,VALID,-0.019,VALID,20.324,VALID,109.0,VALID,0.0,
2019-04-15, 02:42:07,VALID,916.546,VALID,0.0,VALID,99.544,VALID,-0.01,VALID,20.31,VALID,111.0,VALID,0.0,
2019-04-15, 02:43:07,VALID,916.524,VALID,0.0,VALID,99.54,VALID,-0.036,VALID,20.308,VALID,118.0,VALID,0.0,
2019-04-15, 02:44:07,VALID,916.506,VALID,0.0,VALID,99.54,VALID,-0.014,VALID,20.305,VALID,112.0,VALID,0.0,
2019-04-15, 02:45:07,VALID,916.489,VALID,0.0,VALID,99.538,VALID,-0.003,VALID,20.303,VALID,113.0,VALID,0.0,
2019-04-15, 02:46:07,VALID,916.495,VALID,0.0,VALID,99.53,VALID,-0.005,VALID,20.294,VALID,98.0,VALID,0.0,
2019-04-15, 02:47:07,VALID,916.456,VALID,0.0,VALID,99.545,VALID,-0.007,VALID,20.294,VALID,93.0,VALID,0.0,
2019-04-15, 02:48:07,VALID,916.476,VALID,0.0,VALID,99.505,VALID,0.014,VALID,20.292,VALID,95.0,VALID,0.0,
2019-04-15, 02:49:07,VALID,916.443,VALID,0.0,VALID,99.538,VALID,-0.024,VALID,20.302,VALID,94.0,VALID,0.0,
2019-04-15, 02:50:07,VALID,916.449,VALID,0.0,VALID,99.523,VALID,-0.008,VALID,20.297,VALID,91.0,VALID,0.0,
2019-04-15, 02:51:07,VALID,916.414,VALID,0.0,VALID,99.499,VALID,-0.011,VALID,20.305,VALID,85.0,VALID,0.0,
2019-04-15, 02:52:07,VALID,916.409,VALID,0.0,VALID,99.492,VALID,-0.004,VALID,20.299,VALID,95.0,VALID,0.0,
2019-04-15, 02:53:07,VALID,916.389,VALID,0.0,VALID,99.505,VALID,-0.002,VALID,20.307,VALID,92.0,VALID,0.0,
2019-04-15, 02:54:07,VALID,916.375,VALID,0.0,VALID,99.502,VALID,-0.005,VALID,20.307,VALID,95.0,VALID,0.0,
2019-04-15, 02:55:07,VALID,916.381,VALID,0.0,VALID,99.483,VALID,-0.002,VALID,20.316,VALID,93.0,VALID,0.0,
2019-04-15, 02:56:07,VALID,916.366,VALID,0.0,VALID,99.479,VALID,0.004,VALID,20.31,VALID,100.0,VALID,0.0,
2019-04-15, 02:57:07,VALID,916.368,VALID,0.0,VALID,99.485,VALID,-0.012,VALID,20.3,VALID,105.0,VALID,0.0,
2019-04-15, 02:58:07,VALID,916.326,VALID,0.0,VALID,99.488,VALID,-0.008,VALID,20.298,VALID,116.0,VALID,0.0,
2019-04-15, 02:59:07,VALID,916.317,VALID,0.0,VALID,99.493,VALID,-0.002,VALID,20.288,VALID,103.0,VALID,0.0,
2019-04-15, 03:00:07,VALID,916.306,VALID,0.0,VALID,99.472,VALID,-0.034,VALID,20.28,VALID,104.0,VALID,0.0,
2019-04-15, 03:01:07,VALID,916.281,VALID,0.0,VALID,99.49,VALID,-0.019,VALID,20.28,VALID,105.0,VALID,0.0,
2019-04-15, 03:02:07,VALID,916.249,VALID,0.0,VALID,99.473,VALID,-0.003,VALID,20.279,VALID,105.0,VALID,0.0,
2019-04-15, 03:03:07,VALID,916.236,VALID,0.0,VALID,99.487,VALID,-0.021,VALID,20.27,VALID,114.0,VALID,0.0,
2019-04-15, 03:04:07,VALID,916.213,VALID,0.0,VALID,99.483,VALID,-0.032,VALID,20.268,VALID,108.0,VALID,0.0,
2019-04-15, 03:05:07,VALID,916.199,VALID,0.0,VALID,99.475,VALID,-0.024,VALID,20.268,VALID,101.0,VALID,0.0,
2019-04-15, 03:06:07,VALID,916.2,VALID,0.0,VALID,99.475,VALID,-0.021,VALID,20.258,VALID,109.0,VALID,0.0,
2019-04-15, 03:07:07,VALID,916.168,VALID,0.0,VALID,99.474,VALID,-0.011,VALID,20.257,VALID,107.0,VALID,0.0,
2019-04-15, 03:08:07,VALID,916.162,VALID,0.0,VALID,99.454,VALID,-0.015,VALID,20.257,VALID,107.0,VALID,0.0,
2019-04-15, 03:09:07,VALID,916.126,VALID,0.0,VALID,99.471,VALID,-0.008,VALID,20.267,VALID,116.0,VALID,0.0,
2019-04-15, 03:10:07,VALID,916.113,VALID,0.0,VALID,99.458,VALID,-0.02,VALID,20.285,VALID,108.0,VALID,0.0,
2019-04-15, 03:11:07,VALID,916.093,VALID,0.0,VALID,99.448,VALID,-0.017,VALID,20.285,VALID,98.0,VALID,0.0,
2019-04-15, 03:12:07,VALID,916.075,VALID,0.0,VALID,99.425,VALID,-0.013,VALID,20.291,VALID,92.0,VALID,0.0,
2019-04-15, 03:13:07,VALID,916.057,VALID,0.0,VALID,99.419,VALID,-0.025,VALID,20.32,VALID,100.0,VALID,0.0,
2019-04-15, 03:14:07,VALID,916.045,VALID,0.0,VALID,99.391,VALID,-0.017,VALID,20.329,VALID,91.0,VALID,0.0,
2019-04-15, 03:15:07,VALID,916.031,VALID,0.0,VALID,99.374,VALID,-0.007,VALID,20.317,VALID,93.0,VALID,0.0,
2019-04-15, 03:16:07,VALID,916.03,VALID,0.0,VALID,99.361,VALID,-0.006,VALID,20.312,VALID,100.0,VALID,0.0,
2019-04-15, 03:17:07,VALID,916.015,VALID,0.0,VALID,99.314,VALID,0.003,VALID,20.322,VALID,102.0,VALID,0.0,
2019-04-15, 03:18:07,VALID,915.997,VALID,0.0,VALID,99.295,VALID,-0.011,VALID,20.326,VALID,97.0,VALID,0.0,
2019-04-15, 03:19:07,VALID,915.987,VALID,0.0,VALID,99.256,VALID,-0.016,VALID,20.339,VALID,91.0,VALID,0.0,
2019-04-15, 03:20:07,VALID,915.994,VALID,0.0,VALID,99.216,VALID,-0.017,VALID,20.331,VALID,91.0,VALID,0.0,
2019-04-15, 03:21:07,VALID,915.994,VALID,0.0,VALID,99.183,VALID,-0.012,VALID,20.325,VALID,96.0,VALID,0.0,
2019-04-15, 03:22:07,VALID,916.002,VALID,0.0,VALID,99.156,VALID,-0.007,VALID,20.321,VALID,104.0,VALID,0.0,
2019-04-15, 03:23:07,VALID,916.01,VALID,0.0,VALID,99.138,VALID,-0.001,VALID,20.334,VALID,107.0,VALID,0.0,
2019-04-15, 03:24:07,VALID,916.002,VALID,0.0,VALID,99.106,VALID,-0.004,VALID,20.344,VALID,101.0,VALID,0.0,
2019-04-15, 03:25:07,VALID,916.012,VALID,0.0,VALID,99.105,VALID,-0.005,VALID,20.347,VALID,117.0,VALID,0.0,
2019-04-15, 03:26:07,VALID,916.016,VALID,0.0,VALID,99.048,VALID,-0.008,VALID,20.332,VALID,115.0,VALID,0.0,
2019-04-15, 03:27:07,VALID,916.002,VALID,0.0,VALID,99.036,VALID,0.008,VALID,20.319,VALID,113.0,VALID,0.0,
2019-04-15, 03:28:07,VALID,915.999,VALID,0.0,VALID,99.061,VALID,-0.005,VALID,20.31,VALID,109.0,VALID,0.0,
2019-04-15, 03:29:07,VALID,915.986,VALID,0.0,VALID,99.092,VALID,-0.003,VALID,20.32,VALID,119.0,VALID,0.0,
2019-04-15, 03:30:07,VALID,915.981,VALID,0.0,VALID,99.058,VALID,0.038,VALID,20.297,VALID,111.0,VALID,0.0,
2019-04-15, 03:31:07,VALID,915.966,VALID,0.0,VALID,99.058,VALID,0.035,VALID,20.283,VALID,112.0,VALID,0.0,
2019-04-15, 03:32:07,VALID,915.96,VALID,0.0,VALID,99.074,VALID,0.023,VALID,20.274,VALID,114.0,VALID,0.0,
2019-04-15, 03:33:07,VALID,915.956,VALID,0.0,VALID,99.086,VALID,0.019,VALID,20.283,VALID,122.0,VALID,0.0,
2019-04-15, 03:34:07,VALID,915.955,VALID,0.0,VALID,99.085,VALID,0.018,VALID,20.284,VALID,121.0,VALID,0.0,
2019-04-15, 03:35:07,VALID,915.944,VALID,0.0,VALID,99.097,VALID,0.028,VALID,20.278,VALID,118.0,VALID,0.0,
2019-04-15, 03:36:07,VALID,915.951,VALID,0.0,VALID,99.087,VALID,0.026,VALID,20.284,VALID,123.0,VALID,0.0,
2019-04-15, 03:37:07,VALID,915.942,VALID,0.0,VALID,99.062,VALID,0.035,VALID,20.291,VALID,123.0,VALID,0.0,
2019-04-15, 03:38:07,VALID,915.961,VALID,0.0,VALID,99.053,VALID,0.037,VALID,20.286,VALID,116.0,VALID,0.0,
2019-04-15, 03:39:07,VALID,915.948,VALID,0.0,VALID,99.053,VALID,0.032,VALID,20.289,VALID,118.0,VALID,0.0,
2019-04-15, 03:40:07,VALID,915.942,VALID,0.0,VALID,99.049,VALID,0.031,VALID,20.308,VALID,115.0,VALID,0.0,
2019-04-15, 03:41:07,VALID,915.919,VALID,0.0,VALID,98.972,VALID,0.026,VALID,20.318,VALID,116.0,VALID,0.0,